Terminal Aerodrome Forecast
Issued by NWS St Louis, MO

Home | Current Version | Previous Version | Text Only | Print | Product List | Glossary On
Versions: 1 2 3 4 5 6 7 8 9 10 11 12 13 14 15 16 17 18
000
FTUS43 KLSX 272320
TAFCOU
TAF
KCOU 272320Z 2800/2824 14009KT P6SM FEW250
     FM281300 16013G18KT P6SM SCT250
     FM281600 18015G25KT P6SM SCT045=

USA.gov is the U.S. government's official web portal to all federal, state and local government web resources and services.